Regional Weather Roundup
Issued by NWS

Home | Current Version | Previous Version | Graphics & Text | Print | Product List | Glossary Off
Versions: 1 2 3 4 5 6 7 8 9 10 11 12 13 14 15 16 17 18 19 20 21 22 23 24 25 26 27 28 29 30 31 32 33 34 35 36 37 38 39 40 41 42 43 44 45 46 47 48 49 50

000
ASUS44 KFWD 231915
RWRTX
NORTH TEXAS HOURLY WEATHER ROUNDUP
NATIONAL WEATHER SERVICE FORT WORTH TX
100 PM CST THU FEB 23 2017

NOTE: "FAIR" INDICATES FEW OR NO CLOUDS BELOW 12,000 FEET WITH NO
SIGNIFICANT WEATHER AND/OR OBSTRUCTIONS TO VISIBILITY.

TXZ118-119-232000-
DALLAS/FORT WORTH METROPLEX

CITY           SKY/WX    TMP DP  RH WIND       PRES   REMARKS
DFW AIRPORT    SUNNY     86  46  24 S16G29    29.54F
DALLAS LOVE    MOSUNNY   87  45  23 S18       29.56F
FTW MEACHAM    SUNNY     85  47  26 S16       29.54F
DAL-EXECUTIVE  SUNNY     83  46  27 S13G29    29.56F
FTW-ALLIANCE   MOSUNNY   86  43  22 S14G24    29.54F
FTW-NAS-JRB    SUNNY     86  48  26 S20G32    29.54F
FTW-SPINKS     SUNNY     84  48  28 SE16      29.57F
ARLINGTON      SUNNY     82  49  31 S12G23    29.56F
GRAND PRAIRIE  SUNNY     81  46  30 S18       29.58F
ADDISON        SUNNY     84  45  24 S16G26    29.56F
MESQUITE       SUNNY     84  45  24 S16G25    29.59F
LANCASTER      SUNNY     80  48  32 S23       29.60F
$$

TXZ091>094-102>105-117-120-121-131>134-232000-
NORTH CENTRAL TEXAS

CITY           SKY/WX    TMP DP  RH WIND       PRES   REMARKS
SHRMAN/DENISON SUNNY     82  46  28 S16G23    29.56F
GAINESVILLE    SUNNY     81  46  29 S14G23    29.55F
BOWIE          MOSUNNY   88  38  17 S15G22    29.52F
BRIDGEPORT     SUNNY     89  39  17 S16G22    29.53F
DECATUR        SUNNY     85  42  22 S10G18    29.54F
DENTON         SUNNY     87  47  24 S16       29.53F
MCKINNEY       SUNNY     82  47  29 S24G33    29.56F
BONHAM         SUNNY     81  46  30 S21G30    29.57F
GREENVILLE     SUNNY     82  41  23 S22       29.60F
ROCKWALL       SUNNY     83  46  27 SW22G36   29.59F
TERRELL        LGT RAIN  84  44  24 S23G31    29.60F
WAXAHACHIE     SUNNY     81  51  35 S20G25    29.60F
CLEBURNE       SUNNY     86  46  25 SE17      29.58F
GRANBURY       SUNNY     91  38  15 S18G28    29.55F
$$

TXZ083>090-098>101-113>116-127>130-139>142-154-155-232000-
WESTERN NORTH TEXAS

CITY           SKY/WX    TMP DP  RH WIND       PRES   REMARKS
WICHITA FALLS  MOSUNNY   84  43  23 S17       29.48F
WF-KICKAPOO    SUNNY     83  42  23 S13G18    29.50F
VERNON         SUNNY     83  32  16 SW15      29.48F
ABILENE        SUNNY     84  41  21 SW15      29.58F
ABILENE-DYESS  SUNNY     88  38  17 SW15      29.55F
GRAHAM         SUNNY     90  43  19 S10       29.51F
BRECKENRIDGE   SUNNY     88  36  15 MISG      29.54F
CISCO          SUNNY     86  39  19 SW14G22   29.59F
RANGER         SUNNY     86  36  16 SW15G24   29.58F
MINERAL WELLS  SUNNY     92  31  11 SW18G30   29.51F
STEPHENVILLE   SUNNY     88  34  14 S15G26    29.60F
COMANCHE       SUNNY     87  40  18 SW24G32   29.57F
BROWNWOOD      SUNNY     86  37  17 SW17G23   29.59F
COLEMAN        SUNNY     85  39  20 SW13G18   29.60F
$$

TXZ143>147-156>162-174-175-232000-
CENTRAL TEXAS

CITY           SKY/WX    TMP DP  RH WIND       PRES   REMARKS
WACO           SUNNY     83  50  31 S20       29.60F
WACO-MCGREGOR  SUNNY     83  52  34 S21       29.60F
HILLSBORO      SUNNY     80  55  41 S18G25    29.60F
CORSICANA      SUNNY     84  47  27 S21       29.64F
MEXIA          SUNNY     81  49  33 S23G35    29.63F
HEARNE         SUNNY     83  55  38 SE14      29.67F
CAMERON        SUNNY     83  53  34 S15       29.65F
TEMPLE         SUNNY     82  51  34 S23       29.61F
KILLEEN        SUNNY     87  39  18 S22       29.60F
KILLEEN-SKYLRK SUNNY     88  44  21 S18G25    29.61F
FORT HOOD      SUNNY     89  40  17 S18G26    29.57F
GATESVILLE     SUNNY     90  41  18 SW24      29.60F
HAMILTON       SUNNY     88  41  19 SW26      29.61F
LAMPASAS       SUNNY     91  39  16 S17G25    29.60F
$$

TXZ095>097-106>112-122>126-135>138-148>153-164>167-232000-
EAST TEXAS

CITY           SKY/WX    TMP DP  RH WIND       PRES   REMARKS
PARIS          SUNNY     82  46  28 S18       29.61F
SULPHUR SPRNGS SUNNY     82  45  26 S14G25    29.63F
MOUNT PLEASANT SUNNY     81  46  28 SE15G22   29.64F
GILMER         SUNNY     80  46  30 S12G21    29.65F THUNDER
MINEOLA        SUNNY     82  50  32 S9G17     29.63F
TYLER          SUNNY     82  47  29 S23G30    29.64F
LONGVIEW       SUNNY     81  50  33 S15G23    29.66F
MARSHALL       SUNNY     78  48  35 S13G20    29.70F
ATHENS         SUNNY     79  48  34 S12G24    29.63F
PALESTINE      SUNNY     81  51  36 S18G25    29.67F
JACKSONVILLE   SUNNY     78  49  35 S15G22    29.70F
HENDERSON      SUNNY     79  50  36 S13G21    29.69F
CENTER         CLEAR     82  55  40 S12G20    29.72F
NACOGDOCHES    SUNNY     79  55  44 S15       29.69F
LUFKIN         SUNNY     79  54  41 S14       29.71F
$$

SUPPLEMENTAL OBSERVATIONS (CENTRAL)

CITY           SKY/WX    TMP DP  RH WIND       PRES   REMARKS
DENISON DAM      N/A     81  45  28 S10         N/A
CADDO GRASSLND   N/A     82  43  24 S17         N/A
PAT MAYSE LAKE   N/A     79  34  19 SE22        N/A
GREENVILLE       N/A     82  43  24 S15G22      N/A
CEDAR HILL       N/A     84  46  26 S12G23      N/A
ATHENS           N/A     81  48  32 S14G25      N/A
LAKE LIMESTONE   N/A     82  52  34 S18G26      N/A
MCGREGOR         N/A     82  52  34 S22         N/A
TEMPLE           N/A     82  46  28 S24         N/A
$$

SUPPLEMENTAL OBSERVATIONS (WEST)

CITY           SKY/WX    TMP DP  RH WIND       PRES   REMARKS
MILLERS CREEK    N/A     88  43  20 W18G26      N/A
POSSUM KINGDOM   N/A     90  37  15 SW14G23     N/A
LBJ GRASSLAND    N/A     88  43  20 S14         N/A
GRANBURY         N/A     91  39  16 SW18G31     N/A
COMANCHE         N/A     88  37  16 SW18G31     N/A
HAMBY            N/A     86  45  23 SW15        N/A
IVIE RESERVOIR   N/A     90  36  14 SW15        N/A
COLORADO BEND    N/A     90  37  15 SW13G26     N/A
$$

SUPPLEMENTAL OBSERVATIONS (EAST)

CITY           SKY/WX    TMP DP  RH WIND       PRES   REMARKS
CLARKSVILLE      N/A     84  46  26 S15G25      N/A
TEXARKANA        N/A     81  50  34 S8G17       N/A
LINDEN           N/A     81  48  32 S8G17       N/A
GILMER           N/A     82  45  26 S13G23      N/A
HENDERSON        N/A     81  50  34 S15G26      N/A
LUFKIN           N/A     81  52  36 MISG        N/A
N SABINE NF      N/A     82  55  39 MISG        N/A
S SABINE NF      N/A     79  55  44 SE6         N/A
$$

SUPPLEMENTAL OBSERVATIONS ARE A COLLECTION OF AUTOMATED INSTRUMENTS
THAT ARE MAINTAINED BY A VARIETY OF FEDERAL AND STATE AGENCIES.
CERTAIN ELEMENTS...SUCH AS HUMIDITY VALUES AND SUSTAINED WIND
SPEEDS...MAY BE APPROXIMATED.





USA.gov is the U.S. government's official web portal to all federal, state and local government web resources and services.